Content
SEND FEEDBACK

Daily
Averages
Monthly
Summary
United States of America

FLORENCE, KANSAS


Home > North America > United States > Kansas
Elevation: 1326 feet     Latitude: 38 15N     Longitude: 096 56W

WEATHER
 
SELECT A DAY
Number of Records: 439,815;   Date Range: 1/1/95 - 9/16/14
 
SHARE

PRINT THIS DATA

[ ← Previous Day ]
WEATHER ALMANAC - FEBRUARY 13, 2013
[ Next Day → ]
[ °C ]   °F
Weather ElementAverageHighLow
Temperature38 °F55.4 °F (2:15 pm)21.2 °F (6:35 am)
Dewpoint20.3 °F24.8 °F (10:15 am)15.8 °F (6:35 am)
Humidity54.4 %86 % (1:55 am)25 % (2:35 pm)
Barometer29.93 in29.99 in (12:35 am)29.87 in (5:15 pm)
Wind Speed10.1 mph19.6 mph (3:35 pm)
Wind Gust26.5 mph (3:15 pm)
Weather ElementAverage
Visibility9.7 mi
Wind DirectionWSW (261.8 °)

Weather ElementTotal
Precipitation---
Heating Degree Days26.7 (Base 65)
Averaged from 71 records on February 13, 2013
WEATHER CONDITIONS BREAKOUT
WIND DIRECTION BREAKOUT
WEATHER BY HOUR - FEBRUARY 13, 2013
[ °C ]   °F
Local TimeTemperatureDewpointHumidityBarometerVisibilityWind DirectionWind SpeedGust SpeedPrecipitationEventsConditions
12:35 AM28.4 °F23.0 °F80 %29.99 in10.0 miSW (230°)9.2 mphClear
12:55 AM28.4 °F23.0 °F80 %29.99 in10.0 miSW (230°)9.2 mphClear
1:15 AM28.4 °F23.0 °F80 %29.98 in10.0 miSW (230°)9.2 mphClear
1:35 AM28.4 °F23.0 °F80 %29.98 in9.0 miWSW (240°)8.1 mphClear
1:55 AM26.6 °F23.0 °F86 %29.98 in8.0 miWSW (240°)8.1 mphClear
2:15 AM26.6 °F21.2 °F80 %29.97 in7.0 miWSW (240°)8.1 mphClear
2:35 AM26.6 °F21.2 °F80 %29.97 in7.0 miWSW (250°)6.9 mphClear
2:55 AM24.8 °F21.2 °F86 %29.97 in7.0 miWest (260°)5.8 mphClear
3:15 AM24.8 °F19.4 °F80 %29.96 in6.0 miWest (260°)8.1 mphClear
3:35 AM24.8 °F21.2 °F86 %29.96 in7.0 miWest (270°)6.9 mphClear
3:55 AM24.8 °F21.2 °F86 %29.96 in10.0 miWest (280°)5.8 mphClear
4:15 AM24.8 °F19.4 °F80 %29.96 in10.0 miWest (280°)5.8 mphClear
4:35 AM24.8 °F19.4 °F80 %29.96 in10.0 miWest (280°)5.8 mphClear
4:55 AM24.8 °F19.4 °F80 %29.96 in10.0 miWest (280°)5.8 mphClear
5:15 AM23.0 °F19.4 °F86 %29.96 in10.0 miWest (280°)5.8 mphClear
5:35 AM23.0 °F19.4 °F86 %29.97 in10.0 miWest (280°)8.1 mphClear
5:55 AM23.0 °F19.4 °F86 %29.97 in10.0 miWNW (290°)9.2 mphClear
6:15 AM23.0 °F17.6 °F80 %29.96 in10.0 miWest (280°)5.8 mphClear
6:35 AM21.2 °F15.8 °F80 %29.96 in10.0 miWest (270°)5.8 mphClear
6:55 AM21.2 °F17.6 °F86 %29.96 in10.0 miWest (270°)5.8 mphClear
7:15 AM21.2 °F15.8 °F80 %29.95 in10.0 miWest (260°)8.1 mphClear
7:35 AM21.2 °F15.8 °F80 %29.95 in10.0 miWest (260°)8.1 mphClear
7:55 AM23.0 °F17.6 °F80 %29.96 in10.0 miWSW (250°)6.9 mphClear
8:15 AM24.8 °F17.6 °F74 %29.97 in10.0 miWSW (240°)6.9 mphClear
8:35 AM26.6 °F19.4 °F74 %29.97 in10.0 miWSW (250°)6.9 mphClear
8:55 AM28.4 °F21.2 °F74 %29.97 in10.0 miWSW (250°)9.2 mphClear
9:15 AM30.2 °F21.2 °F69 %29.97 in10.0 miWSW (250°)9.2 mphClear
9:35 AM33.8 °F21.2 °F60 %29.97 in10.0 miWest (270°)8.1 mphClear
9:55 AM33.8 °F23.0 °F65 %29.97 in10.0 miWNW (300°)12.7 mphClear
10:15 AM35.6 °F24.8 °F65 %29.97 in10.0 miWest (270°)9.2 mphClear
10:35 AM39.2 °F24.8 °F56 %29.98 in10.0 miWNW (290°)12.7 mphClear
10:55 AM41.0 °F24.8 °F53 %29.98 in10.0 miWest (280°)13.8 mphClear
11:15 AM42.8 °F24.8 °F49 %29.97 in10.0 miWest (280°)11.5 mphClear
11:35 AM44.6 °F24.8 °F46 %29.97 in10.0 miWNW (290°)15.0 mph20.7 mphClear
11:55 AM46.4 °F24.8 °F43 %29.97 in10.0 miWNW (290°)13.8 mphClear
12:15 PM46.4 °F23.0 °F40 %29.96 in10.0 miWNW (290°)12.7 mph17.3 mphClear
12:35 PM48.2 °F23.0 °F37 %29.95 in10.0 miWest (280°)13.8 mphClear
12:55 PM51.8 °F23.0 °F33 %29.93 in10.0 miWest (270°)11.5 mph18.4 mphClear
1:15 PM51.8 °F23.0 °F33 %29.92 in10.0 miWSW (250°)15.0 mph21.9 mphClear
1:35 PM53.6 °F21.2 °F28 %29.91 in10.0 miWSW (250°)15.0 mph19.6 mphClear
1:55 PM53.6 °F21.2 °F28 %29.91 in10.0 miWest (280°)12.7 mph18.4 mphClear
2:15 PM55.4 °F21.2 °F26 %29.90 in10.0 miWNW (290°)15.0 mph21.9 mphClear
2:35 PM55.4 °F19.4 °F25 %29.89 in10.0 miWest (270°)15.0 mph20.7 mphClear
2:55 PM55.4 °F19.4 °F25 %29.88 in10.0 miWest (280°)18.4 mph21.9 mphClear
3:15 PM55.4 °F19.4 °F25 %29.88 in10.0 miWNW (300°)18.4 mph26.5 mphClear
3:35 PM55.4 °F19.4 °F25 %29.88 in10.0 miWest (270°)19.6 mph25.3 mphClear
3:55 PM55.4 °F19.4 °F25 %29.88 in10.0 miWest (270°)17.3 mph23.0 mphClear
4:15 PM55.4 °F21.2 °F26 %29.88 in10.0 miWest (270°)15.0 mph25.3 mphClear
4:35 PM55.4 °F19.4 °F25 %29.88 in10.0 miWest (280°)13.8 mph26.5 mphClear
4:55 PM55.4 °F21.2 °F26 %29.88 in10.0 miWest (280°)18.4 mph24.2 mphClear
5:15 PM53.6 °F21.2 °F28 %29.87 in10.0 miWest (270°)12.7 mphClear
5:35 PM53.6 °F21.2 °F28 %29.87 in10.0 miWest (280°)9.2 mphClear
5:55 PM51.8 °F19.4 °F28 %29.87 in10.0 miWest (270°)9.2 mphClear
6:15 PM48.2 °F19.4 °F32 %29.87 in10.0 miWest (260°)8.1 mphClear
6:35 PM46.4 °F17.6 °F32 %29.88 in10.0 miWSW (250°)9.2 mphClear
6:55 PM46.4 °F17.6 °F32 %29.88 in10.0 miWSW (250°)8.1 mphClear
7:15 PM46.4 °F17.6 °F32 %29.87 in10.0 miSW (230°)8.1 mphClear
7:35 PM44.6 °F17.6 °F34 %29.88 in10.0 miWSW (240°)8.1 mphClear
7:55 PM44.6 °F17.6 °F34 %29.88 in10.0 miWSW (240°)6.9 mphClear
8:15 PM42.8 °F17.6 °F36 %29.89 in10.0 miWSW (240°)9.2 mphClear
8:35 PM42.8 °F17.6 °F36 %29.89 in10.0 miWSW (240°)8.1 mphClear
8:55 PM41.0 °F17.6 °F39 %29.90 in10.0 miWSW (240°)8.1 mphClear
9:15 PM39.2 °F17.6 °F42 %29.90 in10.0 miWSW (240°)6.9 mphClear
9:35 PM39.2 °F17.6 °F42 %29.90 in10.0 miSW (230°)9.2 mphClear
9:55 PM39.2 °F19.4 °F45 %29.90 in10.0 miSW (230°)9.2 mphClear
10:15 PM37.4 °F19.4 °F48 %29.90 in10.0 miWSW (240°)10.4 mphClear
10:35 PM37.4 °F19.4 °F48 %29.90 in10.0 miWSW (250°)9.2 mphClear
10:55 PM35.6 °F19.4 °F52 %29.91 in10.0 miWSW (250°)9.2 mphClear
11:15 PM37.4 °F21.2 °F52 %29.91 in10.0 miWSW (240°)10.4 mphClear
11:35 PM37.4 °F19.4 °F48 %29.92 in10.0 miWSW (250°)8.1 mphClear
11:55 PM35.6 °F19.4 °F52 %29.92 in10.0 miWSW (250°)9.2 mphClear
Hourly data recorded from KEWK, located miles away from Florence, Kansas







STORIES FROM OUR PARTNERS